N5AET-1 Weather Reports


time (UTC)temp
C
wind
direction
speed
KPH
gust
KPH
rain 1hr
cm
rain 24hr
cm
rain mn
cm
humidity
%
barometer
mb
20260506015036 23 7 0.0 3.2 0.00 0.00 0.00 69 981.1
20260506014016 23 316 0.0 6.4 0.00 0.00 0.00 68 981.0
20260506013016 23 0.0 0.0 0.00 0.00 0.00 68 980.8
20260506012016 23 0.0 1.6 0.00 0.00 0.00 68 981.1
20260506011037 24 279 0.0 4.8 0.00 0.00 0.00 68 980.7
20260506010036 24 6 0.0 1.6 0.00 0.00 0.00 67 980.5
20260506005016 25 7 3.2 11.3 0.00 0.00 0.00 67 980.2
20260506004016 25 357 0.0 9.7 0.00 0.00 0.00 65 980.1
20260506003016 25 332 0.0 6.4 0.00 0.00 0.00 64 980.0
20260506002016 26 305 3.2 6.4 0.00 0.00 0.00 62 980.2
20260506001016 26 353 3.2 6.4 0.00 0.00 0.00 62 980.2
20260506000016 27 311 3.2 9.7 0.00 0.00 0.00 60 979.5
20260505235016 27 354 1.6 9.7 0.00 0.00 0.00 58 979.4
20260505234036 28 360 4.8 9.7 0.00 0.00 0.00 55 979.4
20260505233016 29 359 3.2 9.7 0.00 0.00 0.00 51 979.3
20260505232016 30 359 3.2 8.0 0.00 0.00 0.00 49 979.0
20260505231016 31 286 4.8 8.0 0.00 0.00 0.00 55 978.8
20260505230016 32 185 0.0 3.2 0.00 0.00 0.00 54 978.5
20260505225016 31 0.0 0.0 0.00 0.00 0.00 55 978.6
20260505224116 31 0.0 0.0 0.00 0.00 0.00 54 978.6
20260505223016 32 0.0 3.2 0.00 0.00 0.00 55 978.4
20260505222016 32 231 1.6 6.4 0.00 0.00 0.00 55 978.2
20260505221016 32 0.0 0.0 0.00 0.00 0.00 54 978.2
20260505220016 32 0.0 9.7 0.00 0.00 0.00 54 978.3
20260505215016 32 291 0.0 9.7 0.00 0.00 0.00 52 978.4
20260505214016 32 227 1.6 8.0 0.00 0.00 0.00 53 978.5
20260505213016 32 251 1.6 9.7 0.00 0.00 0.00 54 978.6
20260505212016 32 206 3.2 11.3 0.00 0.00 0.00 55 978.8
20260505211016 32 256 3.2 12.9 0.00 0.00 0.00 56 978.9
20260505210036 31 237 12.9 22.5 0.00 0.00 0.00 56 978.9
20260505205016 31 149 0.0 4.8 0.00 0.00 0.00 58 979.0
20260505204036 31 213 3.2 12.9 0.00 0.00 0.00 58 979.2
20260505203016 31 232 1.6 12.9 0.00 0.00 0.00 58 979.3
20260505202036 31 209 0.0 9.7 0.00 0.00 0.00 58 979.4
20260505201016 31 186 0.0 9.7 0.00 0.00 0.00 58 979.3
20260505200016 31 258 1.6 17.7 0.00 0.00 0.00 59 979.4
20260505195016 31 247 6.4 14.5 0.00 0.00 0.00 59 979.4
20260505194017 30 200 6.4 17.7 0.00 0.00 0.00 62 979.6
20260505193036 30 192 3.2 6.4 0.00 0.00 0.00 64 979.4
20260505192016 30 238 6.4 16.1 0.00 0.00 0.00 64 979.5
20260505190016 28 241 6.4 16.1 0.00 0.00 0.00 66 979.7
20260505185016 28 198 1.6 8.0 0.00 0.00 0.00 66 979.8
20260505184016 28 184 4.8 8.0 0.00 0.00 0.00 66 979.7
20260505183016 28 201 4.8 9.7 0.00 0.00 0.00 67 979.8
20260505182016 28 153 1.6 4.8 0.00 0.00 0.00 68 979.7
20260505181036 28 184 6.4 14.5 0.00 0.00 0.00 67 979.8
20260505180016 28 214 3.2 9.7 0.00 0.00 0.00 69 979.9
20260505175036 28 191 4.8 11.3 0.00 0.00 0.00 68 979.8
20260505174016 27 214 8.0 12.9 0.00 0.00 0.00 68 979.8
20260505173016 27 235 4.8 14.5 0.00 0.00 0.00 70 980.0
20260505172016 27 247 1.6 17.7 0.00 0.00 0.00 72 979.9
20260505171036 26 204 4.8 11.3 0.00 0.00 0.00 72 980.1
20260505170016 26 195 3.2 11.3 0.00 0.00 0.00 72 980.2
20260505165016 27 189 9.7 17.7 0.00 0.00 0.00 71 979.9
20260505164036 26 226 8.0 24.1 0.00 0.00 0.00 73 979.9
20260505163016 26 204 6.4 16.1 0.00 0.00 0.00 73 979.9
20260505162036 26 199 6.4 11.3 0.00 0.00 0.00 73 979.8
20260505161016 26 186 0.0 12.9 0.00 0.00 0.00 74 979.8
20260505153016 25 224 8.0 19.3 0.00 0.00 0.00 77 979.7
20260505152016 25 233 3.2 16.1 0.00 0.00 0.00 79 979.7
20260505151016 25 213 0.0 11.3 0.00 0.00 0.00 80 979.8
20260505125016 22 213 1.6 8.0 0.00 0.00 0.00 87 979.4
20260505124036 22 189 1.6 9.7 0.00 0.00 0.00 88 979.4
20260505123016 22 190 1.6 3.2 0.00 0.00 0.00 88 979.1
20260505122016 22 215 1.6 6.4 0.00 0.00 0.00 88 979.0
20260505121016 21 176 8.0 12.9 0.00 0.00 0.00 88 979.0
20260505120016 21 199 6.4 12.9 0.00 0.00 0.00 88 979.0
20260505115016 21 0.0 6.4 0.00 0.00 0.00 88 978.9
20260505114016 21 183 1.6 8.0 0.00 0.00 0.00 88 978.8
20260505113036 21 184 6.4 11.3 0.00 0.00 0.00 88 978.7
20260505112056 21 225 3.2 12.9 0.00 0.00 0.00 88 978.7
20260505111036 21 192 3.2 6.4 0.00 0.00 0.00 88 978.8
20260505102016 21 144 3.2 9.7 0.00 0.00 0.00 87 978.9
20260505101016 21 206 1.6 9.7 0.00 0.00 0.00 87 978.8
20260505100016 21 196 3.2 9.7 0.00 0.00 0.00 87 978.9
20260505095016 22 190 4.8 12.9 0.00 0.00 0.00 87 979.0
20260505094016 21 146 0.0 4.8 0.00 0.00 0.00 87 979.0
20260505093016 21 152 4.8 14.5 0.00 0.00 0.00 87 979.0
20260505092016 21 0.0 3.2 0.00 0.00 0.00 87 979.1
20260505091016 21 228 4.8 17.7 0.00 0.00 0.00 88 979.3
20260505090016 21 202 1.6 14.5 0.00 0.00 0.00 88 979.1
20260505085036 21 205 0.0 9.7 0.00 0.00 0.00 88 979.2
20260505084016 21 171 3.2 8.0 0.00 0.00 0.00 88 979.2
20260505083016 21 203 3.2 9.7 0.00 0.00 0.00 88 979.2
20260505082016 21 212 1.6 9.7 0.00 0.00 0.00 88 979.3
20260505081036 21 196 1.6 8.0 0.00 0.00 0.00 87 979.3
20260505080016 21 188 1.6 4.8 0.00 0.00 0.00 87 979.4
20260505075056 21 185 0.0 3.2 0.00 0.00 0.00 86 979.5
20260505074016 21 182 4.8 8.0 0.00 0.00 0.00 86 979.7
20260505073016 21 198 0.0 4.8 0.00 0.00 0.00 85 979.9
20260505072016 22 184 1.6 4.8 0.00 0.00 0.00 85 980.1
20260505071016 22 182 1.6 16.1 0.00 0.00 0.00 84 980.1
20260505070016 22 192 3.2 12.9 0.00 0.00 0.00 84 980.2
20260505065016 22 199 0.0 8.0 0.00 0.00 0.00 83 980.3
20260505064016 22 179 1.6 8.0 0.00 0.00 0.00 83 980.5
20260505063056 22 193 3.2 8.0 0.00 0.00 0.00 82 980.5
20260505062036 22 213 0.0 8.0 0.00 0.00 0.00 81 980.4
20260505061036 22 186 1.6 6.4 0.00 0.00 0.00 81 980.5
20260505060016 22 203 3.2 9.7 0.00 0.00 0.00 80 980.6
20260505055016 22 197 3.2 9.7 0.00 0.00 0.00 79 980.6
20260505054016 22 196 3.2 8.0 0.00 0.00 0.00 79 980.6
20260505053016 22 161 0.0 6.4 0.00 0.00 0.00 78 980.9
20260505052016 22 192 6.4 12.9 0.00 0.00 0.00 77 980.9
20260505051016 22 145 0.0 4.8 0.00 0.00 0.00 77 981.0
20260505041016 23 193 1.6 6.4 0.00 0.00 0.00 74 981.2
20260505040036 23 181 0.0 3.2 0.00 0.00 0.00 74 981.3
20260505035036 23 162 1.6 9.7 0.00 0.00 0.00 73 981.1
20260505034016 23 223 1.6 8.0 0.00 0.00 0.00 73 981.1
20260505033016 23 195 3.2 6.4 0.00 0.00 0.00 72 981.1
20260505032016 23 166 3.2 6.4 0.00 0.00 0.00 72 981.2
20260505031016 23 173 3.2 8.0 0.00 0.00 0.00 71 981.3
20260505030016 23 179 0.0 3.2 0.00 0.00 0.00 71 981.2
20260505025016 23 0.0 3.2 0.00 0.00 0.00 70 981.3
20260505024016 23 182 0.0 1.6 0.00 0.00 0.00 70 981.3
20260505023016 23 177 3.2 8.0 0.00 0.00 0.00 70 981.1
20260505022016 23 0.0 1.6 0.00 0.00 0.00 69 981.1
20260505021017 24 203 1.6 8.0 0.00 0.00 0.00 69 980.9
20260505020016 24 189 0.0 8.0 0.00 0.00 0.00 68 980.9